Kuwait, Kuwait

5:23 PM +03 on April 30, 2017 (GMT +0300)
Kuwait International

Weather History for OKBK - September, 2013

Change the Weather History Date:

Thursday, September 19, 2013

  Actual Average Record
Temperature  
Mean Temperature 92 °F -  
Max Temperature 107 °F 100 °F 113 °F (1998)
Min Temperature 77 °F 70 °F -45 °F (2000)
Cooling Degree Days 27    
Growing Degree Days 42 (Base 50)    
Moisture  
Dew Point 42 °F    
Average Humidity 18    
Maximum Humidity 26    
Minimum Humidity 10    
Precipitation  
Precipitation 0.00 in 0.00 in - ()
Sea Level Pressure  
Sea Level Pressure 29.66 in    
Wind  
Wind Speed 2 mph ()    
Max Wind Speed 6 mph    
Max Gust Speed -    
Visibility 4.0 miles    
Events      
Averages and records for this station are not official NWS values.
T = Trace of Precipitation, MM = Missing Value Source: Averaged Metar Reports

Daily Weather History Graph

Daily Weather History Graph

Search for Another Location

Airport or City:

Trip Planner

Search our weather history database for the weather conditions in past years. The results will help you decide how hot, cold, wet, or windy it might be!

Date:

Astronomy

Sep. 19, 2013 Rise Set
Actual Time 5:34 AM +03 5:48 PM +03
Civil Twilight 5:11 AM +03 6:12 PM +03
Nautical Twilight 4:43 AM +03 6:39 PM +03
Astronomical Twilight 4:15 AM +03 7:07 PM +03
Moon 5:37 PM +03 (9/19) 5:16 AM +03 (9/19)
Length of Visible Light 13h 00m
Length of Day
12h 13m
Full, 100% of the Moon is Illuminated
Sep 19
Full
Sep 19
Full
Sep 27
Last Quarter
Oct 5
New
Oct 12
First Quarter

Hourly Weather History & Observations

Time (+03) Temp. Dew Point Humidity Pressure Visibility Wind Dir Wind Speed Gust Speed Precip Events Conditions
12:00 AM 84.2 °F 39.2 °F 20% 29.65 in - Calm Calm - N/A   Clear
1:00 AM 84.2 °F 39.2 °F 20% 29.65 in - Calm Calm - N/A   Clear
2:00 AM 82.4 °F 39.2 °F 21% 29.62 in - Calm Calm - N/A   Clear
3:00 AM 80.6 °F 39.2 °F 23% 29.62 in - WSW 3.5 mph - N/A   Clear
4:00 AM 82.4 °F 42.8 °F 25% 29.62 in 5.0 mi Calm Calm - N/A   Clear
5:00 AM 77.0 °F 39.2 °F 26% 29.65 in 5.0 mi West 4.6 mph - N/A   Clear
6:00 AM 78.8 °F 41.0 °F 26% 29.68 in 3.7 mi SSW 3.5 mph - N/A   Clear
7:00 AM 82.4 °F 41.0 °F 23% 29.68 in 3.7 mi South 4.6 mph - N/A   Clear
8:00 AM 89.6 °F 42.8 °F 20% 29.71 in 3.1 mi SW 3.5 mph - N/A   Light Haze
9:00 AM 95.0 °F 44.6 °F 18% 29.71 in 3.7 mi Calm Calm - N/A   Clear
10:00 AM 102.2 °F 44.6 °F 14% 29.71 in 3.7 mi ESE 3.5 mph - N/A   Clear
11:00 AM 104.0 °F 50.0 °F 16% 29.68 in 4.3 mi East 3.5 mph - N/A   Unknown
12:00 PM 105.8 °F 46.4 °F 14% 29.68 in - ESE 3.5 mph - N/A   Clear
1:00 PM 105.8 °F 42.8 °F 12% 29.65 in - ESE 3.5 mph - N/A   Clear
2:00 PM 107.6 °F 41.0 °F 10% 29.62 in - East 5.8 mph - N/A   Clear
3:00 PM 107.6 °F 41.0 °F 10% 29.65 in - East 3.5 mph - N/A   Clear
4:00 PM 105.8 °F 41.0 °F 11% 29.62 in - ENE 4.6 mph - N/A   Clear
5:00 PM 104.0 °F 42.8 °F 12% 29.65 in - WNW 3.5 mph - N/A   Clear
6:00 PM 100.4 °F 46.4 °F 16% 29.65 in - ESE 5.8 mph - N/A   Clear
7:00 PM 96.8 °F 46.4 °F 18% 29.65 in - ESE 3.5 mph - N/A   Clear
8:00 PM 91.4 °F 42.8 °F 18% 29.68 in - Calm Calm - N/A   Clear
9:00 PM 89.6 °F 42.8 °F 20% 29.68 in - Calm Calm - N/A   Clear
10:00 PM 87.8 °F 41.0 °F 19% 29.68 in - SW 4.6 mph - N/A   Clear
11:00 PM 87.8 °F 41.0 °F 19% 29.68 in - Calm Calm - N/A   Clear